Regional Weather Roundup
Issued by NWS Columbia, SC

Home | Current Version | Previous Version | Text Only | Print | Product List | Glossary On
Versions: 1 2 3 4 5 6 7 8 9 10 11 12 13 14 15 16 17 18 19 20 21 22 23 24 25 26 27
000
ASUS42 KCAE 301610
RWRCAE
REGIONAL WEATHER ROUNDUP
NATIONAL WEATHER SERVICE COLUMBIA SC
1200 PM EDT SAT APR 30 2016

NOTE: "FAIR" INDICATES FEW OR NO CLOUDS BELOW 12,000 FEET WITH NO
SIGNIFICANT WEATHER AND/OR OBSTRUCTIONS TO VISIBILITY.

NOT ALL STATIONS ARE QUALITY CONTROLLED BY THE NATIONAL
WEATHER SERVICE. USE DATA WITH CAUTION...ESPECIALLY
DEWPOINT OBSERVATIONS.

SCZ001>056-GAZ040-063>065-077-301700-
...UPSTATE SOUTH CAROLINA...

CITY           SKY/WX    TMP DP  RH WIND       PRES   REMARKS
ANDERSON       MOSUNNY   81  60  48 VRB5      30.03F
LIBERTY        MOSUNNY   78  59  53 E7        30.05S
SPARTANBURG    CLOUDY    73  61  64 E5        30.06F
CLEMSON        MOSUNNY   80  57  45 VRB7      30.05F
GREENVILLE     SUNNY     76  60  57 NE12      30.07F
GREENWOOD      MOSUNNY   80  65  59 VRB3      30.05S
GREER          SUNNY     75  60  59 E9        30.06F
ROCK HILL      PTSUNNY   74  63  68 VRB3      30.08S
CHESTER        CLOUDY    72  61  68 CALM      30.09S
LAURENS        MOSUNNY   77  64  65 SE3       30.05S


...CENTRAL SOUTH CAROLINA...

CITY           SKY/WX    TMP DP  RH WIND       PRES   REMARKS
COLUMBIA APT   PTSUNNY   80  64  58 CALM      30.04S
COLUMBIA OWENS PTSUNNY   79  65  62 W3        30.05S
MCENTIRE ANGB  PTSUNNY   80  66  61 SE8       30.05S
ORANGEBURG     MOSUNNY   82  65  56 S8G18     30.03F
SUMTER SHAW    MOSUNNY   80  66  62 VRB2      30.03S
NEWBERRY       PTSUNNY   77  66  69 CALM      30.08S
AIKEN          FAIR      82  63  51 S8        30.07S
BARNWELL       FAIR      84  66  54 S9        30.03S
CAMDEN         FAIR      79  64  61 CALM      30.06S
LANCASTER      MOSUNNY   77  64  65 SE3       30.08S
WINNSBORO      CLOUDY    77  64  65 CALM      30.06S


...EASTERN AND COASTAL SOUTH CAROLINA...

CITY           SKY/WX    TMP DP  RH WIND       PRES   REMARKS
MYRTLE BEACH   CLOUDY    72  61  68 E15       30.12R
N MYRTLE BCH   PTSUNNY   72  63  73 E16G24    30.10S
CONWAY         CLOUDY    73  64  73 SE9       30.09S
MARION         CLOUDY    73  64  73 SE8       30.09S
HARTSVILLE     PTSUNNY  N/A N/A N/A SE6       30.07R
FLORENCE       CLOUDY    75  65  70 SE12      30.08S
CHARLESTON APT MOSUNNY   82  68  62 SE12      30.06R
MOUNT PLEASANT PTSUNNY   77  72  83 E8        30.07S
WALTERBORO     MOSUNNY   84  68  58 SE8       30.05S
BEAUFORT       MOSUNNY   83  70  64 VRB7      30.04S


...EASTERN GEORGIA...

CITY           SKY/WX    TMP DP  RH WIND       PRES   REMARKS
AUGUSTA BUSH F MOSUNNY   82  69  64 SE7       30.02S
AUGUSTA DANIEL CLOUDY    82  67  60 VRB6      30.04S
THOMSON        MOSUNNY   84  71  65 S6        30.06S
WASHINGTON     FAIR      79  66  65 CALM      30.02S
CLAXTON        FAIR      85  64  49 SE8       30.01S
SYLVANIA       MOSUNNY   83  69  62 SE5       30.04S
STATESBORO     PTSUNNY   86  70  58 S8        30.02S
SAVANNAH       CLOUDY    83  64  52 SE12      30.03S


...SOUTHERN NORTH CAROLINA...

CITY           SKY/WX    TMP DP  RH WIND       PRES   REMARKS
CHARLOTTE      PTSUNNY   73  61  65 E5        30.09S
MONROE         PTSUNNY   75  62  64 VRB3      30.08S
WADESBORO      CLOUDY    74  60  60 E9        30.08F
ROCKINGHAM     CLOUDY    70  62  76 E8        30.09F
RUTHERFORDTON  CLOUDY    71  60  70 E6        30.10F
ASHEVILLE      PTSUNNY   70  55  59 SE7       30.10F

$$




USA.gov is the U.S. government's official web portal to all federal, state and local government web resources and services.